Location: Bakov nad Jizerou
(50.4784°N, 14.9394°E)
Time: 08:39:55
(UTC+00:00)

Meteor 1-4 Rocket - Pass Details

Date: 16 June 2021
Orbit: 447 x 499 km, 81.2° (Epoch: 04 August)

Event Time Altitude Azimuth Distance (km) Brightness Sun altitude
Rises 23:39:03 0° 338° (NNW) 2,498 7.2 -15.7°
Reaches altitude 10° 23:41:21 10° 326° (NW) 1,609 5.9 -15.6°
Maximum altitude 23:44:20 26° 267° (W) 923 3.8 -15.5°
Enters shadow 23:45:20 23° 239° (WSW) 1,019 3.8 -15.5°
